Location: Boissi�res
(45.2500°N, 2.3667°E)
Time: 10:33:04
(UTC+00:00)

Tiangong - Pass Details

Date: 05 October 2021
Orbit: 382 x 385 km, 41.5° (Epoch: 17 October)

Event Time Altitude Azimuth Distance (km) Brightness Sun altitude
Exits shadow 04:39:13 23° 224° (SW) 867 2.4 -13.9°
Maximum altitude 04:40:03 26° 197° (SSW) 789 2.4 -13.8°
Drops below altitude 10° 04:42:45 10° 138° (SE) 1,393 4.4 -13.3°
Sets 04:45:00 0° 125° (SE) 2,243 5.8 -12.9°
